806  
ASHW40 PHFO 240233  
RWRHI  
 
WEATHER ROUNDUP FOR HAWAII  
NATIONAL WEATHER SERVICE HONOLULU HI  
400 PM HST WED SEP 23 2020  
 
THIS IS AN AUTOMATED REPORT THAT HAS NOT BEEN QUALITY CONTROLLED.  
 
NOTE..."FAIR" INDICATES FEW OR NO CLOUDS BELOW 12,000 FEET WITH NO  
SIGNIFICANT WEATHER AND/OR S TO VISIBILITY
.  
 
* - THESE SITES REPORT LIMITED FIELDS  
# - BUOY DATA PROVIDED BY PACIFIC ISLANDS OCEAN OBSERVING SYSTEM.  
 
HIZ001>004-240300-  
KAUAI-NIIHAU-  
 
CITY SKY/WX TMP DP RH WIND PRES REMARKS
 
LIHUE APT FAIR 85 72 65 NE15 30.06S HX 91  
PORT ALLEN* N/A 88 N/A N/A E22G28 N/A  
POIPU* NOT AVBL  
PRINCEVILLE* NOT AVBL  
KOKOLE POINT* NOT AVBL  
MOLOAA DAIRY* N/A 84 70 61 E6G17 N/A  
WAIMEA HTS* NOT AVBL  
PUU OPAE* NOT AVBL  
PUU LUA* NOT AVBL  
MAKAHA RIDGE* N/A 81 64 57 W5G12 N/A  

 
 
HIZ005>011-240300-  
OAHU-  
 
CITY SKY/WX TMP DP RH WIND PRES REMARKS
 
HONOLULU FAIR 87 68 52 NE21G26 30.01S HX 90  
KALAELOA FAIR 90 68 48 NE9 30.01S HX 94  
KANEOHE MCB PTSUNNY 84 71 65 NE14 30.01F  
WHEELER FIELD FAIR 83 68 59 E18G25 30.05R  
BELLOWS* N/A 82 N/A N/A NE15 N/A  
KAHUKU* N/A 84 N/A N/A NE9G20 N/A  
WHEELER* NOT AVBL  
WAIANAE HARBOR NOT AVBL  
DILLINGHAM* N/A 90 70 51 N6G16 N/A HX 95  
KAHUKU TRN* N/A 82 72 69 E12G21 N/A  
KAWAILOA* NOT AVBL  
KII* N/A 82 73 74 E15 N/A  
MAKUA RANGE* NOT AVBL  
OAHU FOREST NW NOT AVBL  
SCHOFIELD BRK* N/A 81 66 61 E8 N/A  
SCHOFIELD S* NOT AVBL  
WAIANAE VLY* NOT AVBL  
KUAOKALA* NOT AVBL  
HONOULIUULI* NOT AVBL  
MOKUOLOE IS* N/A 81 N/A N/A NE13 N/A  
PALEHUA* NOT AVBL  
WAIAWA PHB* NOT AVBL  

 
 
HIZ012>013-240300-  
MOLOKAI-  
 
CITY SKY/WX TMP DP RH WIND PRES REMARKS
 
MOLOKAI AIRPT FAIR 82 69 64 NE21G29 30.02S  
KALAUPAPA NOT AVBL  
MAKAPULAPAI* N/A 82 73 74 E14 N/A  
MOLOKAI 1* NOT AVBL  
PUU ALII* N/A 65 64 97 NE2G8 N/A  

 
 
HIZ016-240300-  
KAHOOLAWE-  
 
CITY SKY/WX TMP DP RH WIND PRES REMARKS
 
KAHOOLAWE* NOT AVBL  
HAKIOAWA* NOT AVBL  
HONOKANAIA* NOT AVBL  
KANELOA* N/A 81 72 74 E23G38 30.07F  
KEALIALALO* NOT AVBL  
LUA MAKIKA* NOT AVBL  

 
 
HIZ014>015-240300-  
LANAI-  
 
CITY SKY/WX TMP DP RH WIND PRES REMARKS
 
LANAI CITY CLOUDY 79 73 83 NE15 30.07S  
LANAI 1* NOT AVBL  

 
 
HIZ017>028-240300-  
MAUI-  
 
CITY SKY/WX TMP DP RH WIND PRES REMARKS
 
KAHULUI PTSUNNY 83 71 67 NE22 30.00R  
KAPALUA-W MAUI NOT AVBL  
HANA AIRPORT CLOUDY 77 73 88 CALM 30.07R  
HANA* N/A 77 N/A N/A S3 N/A  
HALEAKALA SUMM N/A 50 50 100 E14 N/A VSB 0  
MAALAEA BAY* N/A 84 N/A N/A N24G35 N/A  
HALEAKALA* NOT AVBL  
KAUPO GAP* NOT AVBL  
KULA 1* N/A 62 61 96 NW1G8 N/A  

 
 
HIZ023>026-240300-  
BIG ISLAND OF HAWAII COAST AND LOWER SLOPES-  
 
CITY SKY/WX TMP DP RH WIND PRES REMARKS
 
KAILUA KONA PTSUNNY 85 70 60 S8 29.98R  
HILO HVY RAIN 78 76 93 SE8 30.03R FOG  
HONOKAA* NOT AVBL  
KAWAIHAE MWT* NOT AVBL  
KAWAIHAE* N/A 81 N/A N/A SW5 N/A  
SOUTH POINT* N/A 73 N/A N/A E17G25 N/A  
UPOLU AIRPORT* N/A 81 N/A N/A SE20G31 N/A  
KAMUELA* PTCLDY 70 64 83 NE10 30.13S  
HAKALAU* N/A 59 59 99 E8G17 N/A  
KALOKO-HONOKO* N/A 82 70 65 SW6 29.99R  
PALI 2* N/A 70 68 94 SE8G16 N/A  
KEALAKOMO* N/A 75 73 94 N9G15 N/A  
KAUPULEHU* NOT AVBL  
KAPAPALA* N/A 73 73 100 N3G10 N/A  
LOWER KAHUKU* N/A 68 68 100 N2G12 N/A  
PUHE CS* N/A 82 73 74 SW2 N/A  
PUHO CS* N/A 82 70 66 W3 N/A  
PTA KEAMUKU* NOT AVBL  
WAIKOLOA* NOT AVBL  

 
 
HIZ027>028-240300-  
BIG ISLAND OF HAWAII INTERIOR AND SUMMMITS-  
 
CITY SKY/WX TMP DP RH WIND PRES REMARKS
 
BRADSHAW FIELD HVY RAIN 57 57 100 CALM 30.41R  
MK VISITOR CEN N/A 50 48 93 SE2 N/A  
MAUNA KEA* N/A 39 39 100 NE24 N/A WCI 28  
MAUNA LOA* NOT AVBL  
MAUNA LOA 1* NOT AVBL  
PTA KIPUKA* N/A N/A N/A N/A E7G13 N/A  
PTA RANGE 17* N/A 59 57 94 S7 N/A  
PTA WEST* N/A 64 61 88 E7G18 N/A  
NENE CABIN* N/A 59 59 100 E6G13 N/A  
AHUMOA* NOT AVBL  
PTA PORTABLE* NOT AVBL  
PUU MALI* N/A 57 55 94 NE14G20 N/A  

 
 
HIC003-240300-  
NORTHWEST ISLANDS-  
 
CITY SKY/WX TMP DP RH WIND PRES REMARKS
 
MIDWAY ISLAND MOSUNNY 86 75 70 E10 30.11F HX 95  
MIDWAY NOS* N/A 82 N/A N/A MISG 30.10F  
FRENCH FRIGATE NOT AVBL  

 
 
PHZ110>124-180-240300-  
BUOY REPORTS  
 
STATION/POSITION TIME TEMP WIND PRES WAVE SWELL
 
AIR SEA DIR/SP/G HT/PER HT/DIR  
(UTC) (F) (DEG/KT/KT) (MB) (FT/S) (FT/D)  
BUOY 51101 0210 81 81 80/ 14/ 17 1018.3  
BUOY 51100 NOT AVBL  
BUOY 51002 0210 80 81 80/ 16/ 17 1013.9  
BUOY 51003 0210 83 1015.8  
BUOY 51004 0210 81 81 80/ 17/ 21 1013.8  
WAIMEA BAY# NOT AVBL  
MOKAPU POINT# 0156 81 N/A 5/ 6 2/ 40  
LANAI# 0156 83 N/A 3/17 2/200  
BARBERS PT# 0156 83 N/A 3/15 2/200  
PAUWELA# 0126 80 N/A 5/ 8 2/350  
HILO# 0213 80 N/A 7/ 8 2/ 90  
KANEOHE BAY# 0156 81 N/A 4/ 8 2/ 40  
KANEOHE BAY 2# NOT AVBL  
HANALEI# NOT AVBL  
KAHULUI HARBOR 0154 77 81 50/ 17/ 23 1016.4R  
HONOLULU HARBOR 0154 84 82 50/ 6/ 17 1016.4S  
PEARL HARBOR# 0200 82 N/A 3/17 2/170  
KILO NALU NOT AVBL  
HILO HARBOR 0154 77 81 130/ 5/ 7 1015.4R  
MOKUOLOE 0136 81 82 50/ 9/ 12 1017.3S  
NAWILIWILI 0154 82 86 60/ 11/ 13 1017.6S  
WHOTS BUOY NOT AVBL  
BUOY 51028 NOT AVBL  

 
   
.....................KEY.....................................
 
 
SKY/WX - SKY CONDITIONS/PRESENT WEATHER  
TMP - TEMPERATURE IN FAHRENHEIT  
DWPT - DEWPOINT IN FAHRENHEIT  
RH - RELATIVE HUMIDITY IN PERCENT  
WIND - DIRECTION AND SPEED /MPH FOR ISLANDS...KTS FOR BUOYS/  
PRES - MEAN SEA LEVEL PRESSURE IN INCHES OF HG  
VSB - VISIBILITY IN MILES  
HX - HEAT INDEX  
WCI - WIND CHILL INDEX  
VRB - VARIABLE WIND DIRECTION  
N/A - NOT AVAILABLE  
 
 
CLICK HERE TO GO TO PREVIOUS BULLETINS.

The Nexlab HI Page Main Text Page